Regional Weather Roundup
Issued by NWS

Home | Current Version | Previous Version | Graphics & Text | Print | Product List | Glossary On
Versions: 1 2 3 4 5 6 7 8 9 10 11 12 13 14 15 16 17 18 19 20 21 22 23 24 25 26 27 28 29 30 31 32 33 34 35 36 37 38 39 40 41 42 43 44 45 46 47 48 49 50
000
ASUS45 KTFX 130510
RWRMT
MONTANA REGIONAL WEATHER ROUNDUP
NATIONAL WEATHER SERVICE GREAT FALLS MT
1000 PM MST TUE DEC 12 2017

NOTE: "FAIR" INDICATES FEW OR NO CLOUDS BELOW 12000 FEET WITH NO
SIGNIFICANT WEATHER AND/OR OBSTRUCTIONS TO VISIBILITY.

MTZ001>007-043-130600-
WEST OF THE DIVIDE

CITY           SKY/WX    TMP DP  RH WIND       PRES   REMARKS
KALISPELL      CLOUDY    25  24  96 CALM      30.43R
MISSOULA       CLOUDY    21  18  88 CALM      30.41S
BUTTE          FAIR      27  18  69 CALM      30.30F
MULLAN PASS    FAIR      29   8  41 NW6       30.30F WCI  23
ANACONDA         N/A     25  16  68 SW3       30.32S
DEER LODGE       N/A     27  21  80 E3        30.35F
EUREKA           N/A     21  18  86 MISG      30.48R
HAMILTON         N/A     19  18  93 N3        30.37R
LIBBY            N/A     23  19  86 SE3       30.45R
RONAN            N/A     22  18  85 W2        30.40R
$$

MTZ008-052>055-130600-
SOUTHWEST MONTANA

CITY           SKY/WX    TMP DP  RH WIND       PRES   REMARKS
BOZEMAN        CLOUDY    29  24  82 W3        30.28S
DILLON         CLOUDY    33  21  61 S9        30.28F WCI  25
W YELLOWSTONE  MOCLDY    23  14  68 CALM      30.34R
ENNIS          CLOUDY    37  18  44 S5        30.32S
THREE FORKS      N/A     26  21  81 CALM      30.25S
$$

MTZ009-010-012-014-046-048-049-054-130600-
EAST SLOPES AND CENTRAL MONTANA

CITY           SKY/WX    TMP DP  RH WIND       PRES   REMARKS
CUT BANK       FAIR      33  13  43 NW14      30.22R WCI  23
GREAT FALLS    FAIR      42   8  24 W10       30.23R
MALMSTROM AFB  FAIR      37   8  30 SW9       30.22R WCI  30
HELENA         FAIR      26  21  81 N6        30.27S WCI  19
BOWMANS CRNR   FAIR      39   8  28 S7        30.23R
CHOTEAU          N/A     41  10  28 NW14      30.24R
FAIRFIELD      FAIR      38  11  33 NW5       30.22R
POWER          FAIR      30  10  42 W9        30.21R WCI  22
RAYNESFORD     FAIR      46   6  19 W22G28    30.21R
ULM            FAIR      41   8  25 W9        30.23R
$$

MTZ011-013-016-021-045-047-050-051-130600-
NORTH CENTRAL MONTANA

CITY           SKY/WX    TMP DP  RH WIND       PRES   REMARKS
HAVRE          FAIR      35  15  44 SW10      30.16R WCI  27
LEWISTOWN      FAIR      38  13  35 W13       30.17R WCI  30
N BAR RANCH    FAIR      41   5  22 NW18G24   30.14S
CHINOOK          N/A     37  16  41 W8        30.13R WCI  31
DENTON         FAIR      46  11  24 NW22      30.15R
GEYSER         FAIR      43   7  23 W18G24    30.19R
GRASS RANGE    FAIR      46   9  21 NW25G31   30.10R
STANFORD       FAIR      40   8  26 NW23      30.18R
WINIFRED       FAIR      43   8  23 NW18      30.15R
$$

MTZ017>020-022>027-061-062-130600-
NORTHEAST MONTANA

CITY           SKY/WX    TMP DP  RH WIND       PRES   REMARKS
GLASGOW        FAIR      43  22  43 NW21G29   29.96R
GLENDIVE       FAIR      47  23  38 NW28G38   29.90R
JORDAN           N/A     42  19  39 NW10      30.01S
SIDNEY         FAIR      46  26  45 NW29      29.84R
WOLF POINT     FAIR      47  25  42 NW28G35   29.91R
MALTA          PTCLDY    36  16  44 W13       30.05R WCI  27
PLENTYWOOD       N/A     41  27  56 NW28G37   29.79R
$$

MTZ028>42-056>058-130600-
SOUTHCENTRAL AND SOUTHEAST MONTANA

CITY           SKY/WX    TMP DP  RH WIND       PRES   REMARKS
BAKER          CLOUDY    47  25  42 NW29G39   29.88R
BILLINGS       MOCLDY    50   8  18 NW23      30.12R
LIVINGSTON     MOCLDY    47  11  23 W21       30.20R
MILES CITY     CLOUDY    51  22  31 NW23G35   30.00R
BIG TIMBER     MOCLDY    48   3  15 W28G33    30.19S
FORSYTH          N/A     48  12  23 W14G22    30.04R
LAUREL           N/A     50   7  17 W10       30.14R
ROUNDUP          N/A     47   4  17 W12       30.03R
$$

REGIONAL REPORTS...DAKOTAS

CITY           SKY/WX    TMP DP  RH WIND       PRES   REMARKS
WILLISTON      FAIR      45  28  51 NW25G33   29.78R
MINOT          CLOUDY    42  31  64 W25G39    29.60R
DICKINSON      MOCLDY    46  27  47 NW37G46   29.72R
BEACH          CLOUDY    46  23  39 NW33G43   29.87R
CROSBY         MOCLDY    37  30  75 NW21G29   29.73R WCI  27
TIOGA          MIX PCPN  39  28  65 NW31G39   29.71R WCI  27
WATFORD CITY   FAIR      45  28  53 NW15G30   29.77R
BISMARCK       FAIR      48  26  42 NW23G37   29.57S
GRAND FORKS    CLOUDY    32  29  88 S5        29.41S
FARGO          FAIR      33  28  81 S7        29.42F WCI  27
BUFFALO SD       N/A     49  21  33 W31G40    29.80R
RAPID CITY     FAIR      56  10  16 NW44G58   29.87R
$$

REGIONAL REPORTS...WYOMING/IDAHO/WASHINGTON

CITY           SKY/WX    TMP DP  RH WIND       PRES   REMARKS
GILLETTE       FAIR      47   5  18 NW22      30.04R
SHERIDAN       CLOUDY    46  10  23 N10       30.10R
BUFFALO WY     FAIR      48   3  15 N18G26    30.09R
CODY           MOCLDY    48   3  15 N8        30.15R
YELLOWSTONE LA   N/A     18  15  88 CALM      30.34S
IDAHO FALLS    FAIR      21  16  81 SW7       30.41R WCI  12
SALMON         FAIR      14  11  87 CALM      30.50F
BOISE          CLOUDY    23  20  88 N5        30.52F
SPOKANE        CLOUDY    25  24  96 N5        30.45F FOG
$$

REGIONAL REPORTS...ALBERTA

CITY           SKY/WX    TMP DP  RH WIND       PRES   REMARKS
EDMONTON       PTCLDY    37  27  65 W10       30.12R WCI  30
CALGARY        CLEAR     36  18  48 VRB2      30.19R
LETHBRIDGE     CLEAR     28  14  54 SW13      30.21R WCI  18
MEDICINE HAT   CLEAR     41  25  52 NW14      30.14R
$$

REGIONAL REPORTS...SASKATCHEWAN

CITY           SKY/WX    TMP DP  RH WIND       PRES   REMARKS
SWIFT CURRENT  CLEAR     34  25  69 W16G22    29.97R WCI  23
REGINA         PTCLDY    36  30  80 NW21      29.79R WCI  24
SASKATOON      PTCLDY    34  28  80 W16       29.88R WCI  23
$$



USA.gov is the U.S. government's official web portal to all federal, state and local government web resources and services.